Meteo Giornale » Osservazioni meteo Stati Uniti (USA) » Montrose
ore: 08:53 - Osservazioni Meteo Montrose
Lat. 38° 30' N Lon. 107° 53' W Alt. 1755 metri s.l.m.
18 °C
Poco Nuvoloso
Temp. 24 Ore
12 °C
22 °C
Sud/Sud-Est
7.4 Km/h
Dew point 11 °C
Umidità 63 %
Visibilità 10 Km
Il sole sorge alle ore 06:41
Il sole tramonta alle ore 19:41
| Data e Ora | Cielo e Fenomeni | T °C | DP °C | Um. % | Pres. hPa | Vis. km | Vento km/h | |
|---|---|---|---|---|---|---|---|---|
| Oggi h: 08:53 | Poco Nuvoloso | 18 | 11 | 63 | 1025 | 10 | S/SE 7.4 | |
| Oggi h: 07:53 | Poco Nuvoloso | 13 | 10 | 81 | 1025 | 10 | S 13 | |
| Oggi h: 06:53 | Sereno | 12 | 10 | 87 | 1025 | 10 | S 9.3 | |
| Oggi h: 05:53 | Sereno | 12 | 11 | 93 | 1024 | 10 | N 5.5 | |
| Oggi h: 04:53 | Sereno | 13 | 11 | 87 | 1024 | 10 | N 5.5 | |
| Oggi h: 03:53 | Molto Nuvoloso | 14 | 12 | 87 | 1024 | 10 | S 9.3 | |
| Oggi h: 02:53 | Molto Nuvoloso | 14 | 12 | 87 | 1024 | 10 | N 0 | |
| Oggi h: 01:53 | Sereno | 14 | 12 | 87 | 1024 | 10 | S/SE 7.4 | |
| Oggi h: 00:53 | Poco Nuvoloso | 15 | 13 | 87 | 1024 | 10 | SE 13 | |
| Ieri h: 23:53 | Molto Nuvoloso | 16 | 14 | 87 | 1024 | 10 | S 9.3 | |
| Ieri h: 22:53 | Sereno | 16 | 14 | 87 | 1024 | 10 | E 9.3 | |
| Ieri h: 21:53 | Sereno | 16 | 14 | 87 | 1024 | 10 | O/SO 9.3 | |
| Ieri h: 20:53 | Poco Nuvoloso | 17 | 14 | 82 | 1024 | 10 | N 0 | |
| Ieri h: 19:53 | Coperto | 17 | 14 | 82 | 1024 | 10 | N 5.5 | |
| Ieri h: 18:53 | Nuvoloso | 18 | 13 | 72 | 1024 | 10 | N 7.4 | |
| Ieri h: 17:53 | Coperto | 19 | 13 | 68 | 1024 | 10 | N 5.5 | |
| Ieri h: 16:53 | Coperto | 18 | 14 | 77 | 1024 | 10 | SE 9.3 | |
| Ieri h: 15:53 | Coperto | 17 | 14 | 82 | 1025 | 10 | SE 11.1 | |
| Ieri h: 14:53 | Pioggia | 18 | 14 | 77 | 1026 | 8 | S/SE 20.3 | |
| Ieri h: 13:53 | Pioggia | 22 | 10 | 46 | 1025 | 10 | N 0 | |
| Ieri h: 12:53 | Nuvoloso | 22 | 11 | 49 | 1025 | 10 | N/NO 16.7 | |
| Ieri h: 11:53 | Sereno | 22 | 12 | 53 | 1025 | 10 | N/NO 18.5 | |
| Ieri h: 10:53 | Molto Nuvoloso | 21 | 11 | 52 | 1025 | 10 | N/NO 7.4 | |
| Ieri h: 09:53 | Sereno | 18 | 11 | 63 | 1025 | 10 | N 0 | |



